Location: Fazenda Monte Alegre
(4.8500°S, 38.0333°W)
Time: 16:48:45
(UTC+00:00)

CZ-2C R/B - Pass Details

Date: 24 September 2020
Orbit: 785 x 870 km, 98.2° (Epoch: 24 October)

Event Time Altitude Azimuth Distance (km) Brightness Sun altitude
Rises 21:02:50 0° 33° (NNE) 3,440 5.5 -9.6°
Reaches altitude 10° 21:05:31 10° 44° (NE) 2,504 4.7 -10.3°
Maximum altitude 21:10:17 29° 103° (ESE) 1,518 3.5 -11.5°
Drops below altitude 10° 21:15:02 10° 162° (SSE) 2,492 5.0 -12.7°
Sets 21:17:40 0° 173° (S) 3,420 5.8 -13.3°
